Terug naar catalogus

GLOBAL-34

ActiefCommunicatieVLEO
NORAD 68098·PAYLOAD·🇺🇸 United States

Gelanceerd Mar 5, 2026 vanaf Rocket Lab Launch Complex 1

Loading…

Volgende Passages (komende 24 uur)

TLE

VersSource: Space-Track

Epoch: Sep 14, 2026, 04:41 UTC

1 68098U 26043A   26257.19532199  .00008055  00000-0  24598-3 0  9996
2 68098  42.0208  65.5313 0002971 227.0670 132.9920 15.34128007 29496

Volg GLOBAL-34 in realtime met AllMySat

Download on the App Store